| time (UTC) | temp F | wind direction | speed knots | gust knots | rain 1hr in | rain 24hr in | rain mn in | humidity % | barometer mb |
| 20260502202504 | 59 | 10 | 7.0 | 13.0 | 0.03 | 0.06 | 0.06 | 83 | 1014.1 |
| 20260502201512 | 59 | 8 | 6.1 | 15.6 | 0.03 | 0.05 | 0.05 | 83 | 1014.0 |
| 20260502201005 | 59 | 21 | 8.7 | 23.5 | 0.03 | 0.05 | 0.05 | 82 | 1014.0 |
| 20260502200009 | 59 | 30 | 8.7 | 20.0 | 0.02 | 0.04 | 0.04 | 82 | 1013.8 |
| 20260502194507 | 59 | 12 | 7.8 | 16.5 | 0.02 | 0.03 | 0.03 | 81 | 1013.8 |
| 20260502193020 | 59 | 104 | 5.2 | 18.2 | 0.01 | 0.02 | 0.02 | 80 | 1013.9 |
| 20260502192009 | 59 | 17 | 5.2 | 17.4 | 0.02 | 0.02 | 0.02 | 80 | 1013.5 |
| 20260502191525 | 59 | 18 | 6.1 | 16.5 | 0.02 | 0.02 | 0.02 | 81 | 1013.6 |
| 20260502191008 | 59 | 38 | 6.1 | 14.8 | 0.02 | 0.02 | 0.02 | 81 | 1013.6 |
| 20260502190033 | 59 | 355 | 7.0 | 14.8 | 0.02 | 0.02 | 0.02 | 81 | 1013.7 |
| 20260502185506 | 59 | 2 | 7.8 | 21.7 | 0.02 | 0.02 | 0.02 | 80 | 1013.5 |
| 20260502183509 | 59 | 329 | 10.4 | 20.9 | 0.00 | 0.00 | 0.00 | 78 | 1013.3 |
| 20260502183022 | 59 | 22 | 8.7 | 19.1 | 0.00 | 0.00 | 0.00 | 78 | 1013.3 |
| 20260502182502 | 60 | 49 | 10.4 | 19.1 | 0.00 | 0.00 | 0.00 | 78 | 1013.3 |
| 20260502181517 | 60 | 18 | 8.7 | 16.5 | 0.00 | 0.00 | 0.00 | 76 | 1013.5 |
| 20260502170509 | 65 | 12 | 5.2 | 9.6 | 0.00 | 0.00 | 0.00 | 65 | 1014.4 |
| 20260502164007 | 65 | 4 | 2.6 | 8.7 | 0.00 | 0.00 | 0.00 | 63 | 1014.1 |
| 20260502163508 | 65 | 8 | 1.7 | 9.6 | 0.00 | 0.00 | 0.00 | 63 | 1014.1 |
| 20260502163023 | 65 | 69 | 2.6 | 9.6 | 0.00 | 0.00 | 0.00 | 63 | 1014.2 |
| 20260502162508 | 65 | 45 | 3.5 | 10.4 | 0.00 | 0.00 | 0.00 | 63 | 1014.0 |
| 20260502162011 | 65 | 71 | 3.5 | 10.4 | 0.00 | 0.00 | 0.00 | 63 | 1014.1 |
| 20260502160513 | 65 | 27 | 0.9 | 8.7 | 0.00 | 0.00 | 0.00 | 63 | 1014.3 |
| 20260502152009 | 63 | 358 | 3.5 | 8.7 | 0.00 | 0.00 | 0.00 | 65 | 1014.7 |
| 20260502151548 | 63 | 328 | 4.3 | 8.7 | 0.00 | 0.00 | 0.00 | 65 | 1014.7 |
| 20260502151010 | 63 | 345 | 2.6 | 7.8 | 0.00 | 0.00 | 0.00 | 65 | 1014.6 |
| 20260502150512 | 63 | 33 | 3.5 | 9.6 | 0.00 | 0.00 | 0.00 | 65 | 1014.6 |
| 20260502130511 | 64 | 73 | 2.6 | 11.3 | 0.00 | 0.00 | 0.00 | 64 | 1016.2 |
| 20260502123024 | 64 | 22 | 5.2 | 9.6 | 0.00 | 0.00 | 0.00 | 60 | 1016.7 |
| 20260502122003 | 64 | 13 | 5.2 | 13.9 | 0.00 | 0.00 | 0.00 | 60 | 1016.7 |
| 20260502121506 | 64 | 340 | 7.8 | 13.9 | 0.00 | 0.00 | 0.00 | 60 | 1016.7 |
| 20260502121004 | 64 | 356 | 6.1 | 11.3 | 0.00 | 0.00 | 0.00 | 61 | 1016.6 |
| 20260502120503 | 64 | 13 | 7.0 | 13.0 | 0.00 | 0.00 | 0.00 | 61 | 1016.7 |
| 20260502115503 | 63 | 7 | 6.1 | 16.5 | 0.00 | 0.00 | 0.00 | 63 | 1016.7 |
| 20260502115003 | 63 | 358 | 7.8 | 16.5 | 0.00 | 0.00 | 0.00 | 64 | 1016.7 |
| 20260502114003 | 65 | 336 | 8.7 | 14.8 | 0.00 | 0.00 | 0.00 | 63 | 1016.6 |
| 20260502113508 | 66 | 355 | 7.8 | 20.0 | 0.00 | 0.00 | 0.00 | 60 | 1016.6 |
| 20260502113010 | 67 | 339 | 11.3 | 20.0 | 0.00 | 0.00 | 0.00 | 57 | 1016.5 |
| 20260502112008 | 67 | 7 | 4.3 | 12.2 | 0.00 | 0.00 | 0.00 | 55 | 1016.3 |
| 20260502111503 | 67 | 50 | 4.3 | 17.4 | 0.00 | 0.00 | 0.00 | 55 | 1016.2 |
| 20260502111003 | 67 | 29 | 6.1 | 16.5 | 0.00 | 0.00 | 0.00 | 56 | 1016.1 |
| 20260502110503 | 67 | 37 | 4.3 | 16.5 | 0.00 | 0.00 | 0.00 | 55 | 1016.1 |
| 20260502110008 | 67 | 54 | 7.0 | 17.4 | 0.00 | 0.00 | 0.00 | 55 | 1016.1 |
| 20260502105504 | 68 | 77 | 6.1 | 17.4 | 0.00 | 0.00 | 0.00 | 54 | 1016.0 |
| 20260502105004 | 67 | 328 | 5.2 | 16.5 | 0.00 | 0.00 | 0.00 | 54 | 1016.0 |
| 20260502104506 | 67 | 16 | 5.2 | 13.0 | 0.00 | 0.00 | 0.00 | 54 | 1016.0 |
| 20260502104006 | 67 | 145 | 4.3 | 17.4 | 0.00 | 0.00 | 0.00 | 53 | 1016.0 |
| 20260502103506 | 67 | 65 | 4.3 | 17.4 | 0.00 | 0.00 | 0.00 | 53 | 1015.9 |
| 20260502102509 | 67 | 333 | 6.1 | 18.2 | 0.00 | 0.00 | 0.00 | 53 | 1016.0 |
| 20260502102004 | 67 | 70 | 4.3 | 14.8 | 0.00 | 0.00 | 0.00 | 52 | 1016.0 |
| 20260502101007 | 67 | 33 | 4.3 | 12.2 | 0.00 | 0.00 | 0.00 | 51 | 1016.0 |
| 20260502100503 | 67 | 25 | 3.5 | 12.2 | 0.00 | 0.00 | 0.00 | 51 | 1016.2 |
| 20260502091008 | 69 | 68 | 5.2 | 13.9 | 0.00 | 0.00 | 0.00 | 45 | 1016.3 |
| 20260502090511 | 69 | 330 | 2.6 | 13.0 | 0.00 | 0.00 | 0.00 | 45 | 1016.4 |
| 20260502071511 | 69 | 59 | 2.6 | 9.6 | 0.00 | 0.00 | 0.00 | 48 | 1016.5 |
| 20260502071009 | 69 | 27 | 3.5 | 7.8 | 0.00 | 0.00 | 0.00 | 48 | 1016.4 |
| 20260502070510 | 69 | 24 | 1.7 | 9.6 | 0.00 | 0.00 | 0.00 | 49 | 1016.4 |
| 20260502070036 | 69 | 27 | 3.5 | 12.2 | 0.00 | 0.00 | 0.00 | 48 | 1016.5 |
| 20260502065510 | 69 | 37 | 1.7 | 12.2 | 0.00 | 0.00 | 0.00 | 49 | 1016.4 |
| 20260502065010 | 69 | 64 | 3.5 | 12.2 | 0.00 | 0.00 | 0.00 | 50 | 1016.5 |
| 20260502064520 | 70 | 46 | 1.7 | 7.8 | 0.00 | 0.00 | 0.00 | 50 | 1016.4 |
| 20260502064008 | 70 | 14 | 2.6 | 10.4 | 0.00 | 0.00 | 0.00 | 50 | 1016.3 |
| 20260502063507 | 70 | 56 | 4.3 | 10.4 | 0.00 | 0.00 | 0.00 | 50 | 1016.3 |
| 20260502063035 | 70 | 27 | 0.9 | 7.8 | 0.00 | 0.00 | 0.00 | 50 | 1016.2 |
| 20260502062509 | 71 | 76 | 1.7 | 15.6 | 0.00 | 0.00 | 0.00 | 50 | 1016.3 |
| 20260502062015 | 71 | 9 | 1.7 | 16.5 | 0.00 | 0.00 | 0.00 | 50 | 1016.2 |
| 20260502061010 | 71 | 72 | 3.5 | 13.9 | 0.00 | 0.00 | 0.00 | 49 | 1016.1 |
| 20260502060507 | 70 | 68 | 3.5 | 13.9 | 0.00 | 0.00 | 0.00 | 49 | 1016.1 |
| 20260502060018 | 71 | 106 | 4.3 | 10.4 | 0.00 | 0.00 | 0.00 | 49 | 1016.1 |
| 20260502055509 | 71 | 139 | 0.9 | 8.7 | 0.00 | 0.00 | 0.00 | 51 | 1016.2 |
| 20260502055008 | 71 | 18 | 3.5 | 7.8 | 0.00 | 0.00 | 0.00 | 51 | 1016.3 |
| 20260502054529 | 71 | 29 | 1.7 | 13.0 | 0.00 | 0.00 | 0.00 | 51 | 1016.4 |
| 20260502054010 | 71 | 36 | 6.1 | 13.0 | 0.00 | 0.00 | 0.00 | 50 | 1016.5 |
| 20260502053508 | 70 | 76 | 3.5 | 12.2 | 0.00 | 0.00 | 0.00 | 51 | 1016.6 |
| 20260502053016 | 70 | 85 | 5.2 | 12.2 | 0.00 | 0.00 | 0.00 | 51 | 1016.6 |
| 20260502052508 | 70 | 347 | 3.5 | 11.3 | 0.00 | 0.00 | 0.00 | 52 | 1016.7 |
| 20260502052011 | 70 | 340 | 5.2 | 11.3 | 0.00 | 0.00 | 0.00 | 49 | 1016.7 |
| 20260502051526 | 71 | 12 | 2.6 | 14.8 | 0.00 | 0.00 | 0.00 | 50 | 1016.8 |
| 20260502051013 | 72 | 8 | 4.3 | 14.8 | 0.00 | 0.00 | 0.00 | 49 | 1016.7 |
| 20260502050513 | 72 | 19 | 6.1 | 16.5 | 0.00 | 0.00 | 0.00 | 47 | 1016.8 |
| 20260502050036 | 73 | 45 | 4.3 | 23.5 | 0.00 | 0.00 | 0.00 | 46 | 1016.7 |
| 20260502045509 | 73 | 1 | 8.7 | 23.5 | 0.00 | 0.00 | 0.00 | 45 | 1016.7 |
| 20260502045008 | 73 | 9 | 4.3 | 17.4 | 0.00 | 0.00 | 0.00 | 47 | 1016.9 |
| 20260502044517 | 73 | 50 | 4.3 | 20.0 | 0.00 | 0.00 | 0.00 | 46 | 1017.0 |
| 20260502044008 | 73 | 21 | 8.7 | 19.1 | 0.00 | 0.00 | 0.00 | 46 | 1017.0 |
| 20260502043507 | 72 | 31 | 5.2 | 20.9 | 0.00 | 0.00 | 0.00 | 49 | 1017.1 |
| 20260502043027 | 72 | 2 | 10.4 | 20.9 | 0.00 | 0.00 | 0.00 | 48 | 1017.0 |
| 20260502042510 | 72 | 14 | 7.8 | 20.9 | 0.00 | 0.00 | 0.00 | 46 | 1017.1 |
| 20260502042012 | 72 | 25 | 12.2 | 20.9 | 0.00 | 0.00 | 0.00 | 47 | 1017.2 |
| 20260502041527 | 72 | 356 | 7.8 | 18.2 | 0.00 | 0.00 | 0.00 | 48 | 1017.3 |
| 20260502041008 | 72 | 18 | 10.4 | 18.2 | 0.00 | 0.00 | 0.00 | 49 | 1017.3 |
| 20260502040512 | 72 | 9 | 10.4 | 18.2 | 0.00 | 0.00 | 0.00 | 49 | 1017.4 |
| 20260502040023 | 71 | 353 | 7.8 | 20.0 | 0.00 | 0.00 | 0.00 | 51 | 1017.4 |
| 20260502035509 | 71 | 8 | 10.4 | 20.0 | 0.00 | 0.00 | 0.00 | 49 | 1017.4 |
| 20260502035014 | 71 | 15 | 10.4 | 22.6 | 0.00 | 0.00 | 0.00 | 51 | 1017.4 |
| 20260502034522 | 70 | 348 | 10.4 | 22.6 | 0.00 | 0.00 | 0.00 | 50 | 1017.4 |
| 20260502033512 | 70 | 320 | 7.8 | 20.9 | 0.00 | 0.00 | 0.00 | 50 | 1017.5 |
| 20260502033018 | 70 | 50 | 7.8 | 20.9 | 0.00 | 0.00 | 0.00 | 50 | 1017.5 |
| 20260502032507 | 71 | 4 | 10.4 | 20.0 | 0.00 | 0.00 | 0.00 | 49 | 1017.6 |
| 20260502032011 | 71 | 347 | 10.4 | 26.1 | 0.00 | 0.00 | 0.00 | 50 | 1017.6 |
| 20260502031516 | 70 | 360 | 7.0 | 26.1 | 0.00 | 0.00 | 0.00 | 51 | 1017.7 |
| 20260502031011 | 70 | 14 | 9.6 | 20.9 | 0.00 | 0.00 | 0.00 | 51 | 1017.8 |
| 20260502030511 | 70 | 334 | 8.7 | 20.9 | 0.00 | 0.00 | 0.00 | 51 | 1017.8 |
| 20260502030013 | 70 | 360 | 9.6 | 19.1 | 0.00 | 0.00 | 0.00 | 50 | 1017.8 |
| 20260502025509 | 71 | 341 | 5.2 | 22.6 | 0.00 | 0.00 | 0.00 | 49 | 1017.9 |
| 20260502025009 | 72 | 307 | 10.4 | 22.6 | 0.00 | 0.00 | 0.00 | 48 | 1018.0 |
| 20260502024517 | 72 | 29 | 8.7 | 20.9 | 0.00 | 0.00 | 0.00 | 48 | 1017.9 |
| 20260502024007 | 72 | 23 | 11.3 | 19.1 | 0.00 | 0.00 | 0.00 | 48 | 1018.0 |
| 20260502023508 | 72 | 26 | 7.8 | 16.5 | 0.00 | 0.00 | 0.00 | 47 | 1018.0 |
| 20260502023014 | 72 | 313 | 8.7 | 18.2 | 0.00 | 0.00 | 0.00 | 47 | 1018.2 |
| 20260502022507 | 72 | 348 | 10.4 | 18.2 | 0.00 | 0.00 | 0.00 | 50 | 1018.4 |
| 20260502022011 | 72 | 17 | 8.7 | 18.2 | 0.00 | 0.00 | 0.00 | 51 | 1018.5 |
| 20260502021522 | 70 | 9 | 12.2 | 18.2 | 0.00 | 0.00 | 0.00 | 50 | 1018.6 |
| 20260502020509 | 70 | 349 | 7.0 | 17.4 | 0.00 | 0.00 | 0.00 | 51 | 1018.9 |
| 20260502020016 | 71 | 22 | 9.6 | 15.6 | 0.00 | 0.00 | 0.00 | 50 | 1018.9 |
| 20260502015507 | 71 | 56 | 7.0 | 13.9 | 0.00 | 0.00 | 0.00 | 51 | 1019.1 |
| 20260502015005 | 70 | 341 | 7.8 | 13.9 | 0.00 | 0.00 | 0.00 | 55 | 1019.3 |
| 20260502014516 | 70 | 337 | 6.1 | 11.3 | 0.00 | 0.00 | 0.00 | 55 | 1019.5 |
| 20260502014005 | 69 | 343 | 4.3 | 11.3 | 0.00 | 0.00 | 0.00 | 57 | 1019.6 |
| 20260502013507 | 68 | 348 | 2.6 | 9.6 | 0.00 | 0.00 | 0.00 | 56 | 1019.6 |
| 20260502013016 | 68 | 352 | 3.5 | 11.3 | 0.00 | 0.00 | 0.00 | 58 | 1019.8 |
| 20260502012507 | 67 | 5 | 5.2 | 11.3 | 0.00 | 0.00 | 0.00 | 58 | 1019.8 |
| 20260502012007 | 67 | 26 | 3.5 | 9.6 | 0.00 | 0.00 | 0.00 | 59 | 1019.9 |
| 20260502005508 | 66 | 11 | 2.6 | 8.7 | 0.00 | 0.00 | 0.00 | 58 | 1020.3 |
| 20260502005008 | 66 | 48 | 2.6 | 8.7 | 0.00 | 0.00 | 0.00 | 59 | 1020.4 |
| 20260502004520 | 66 | 27 | 2.6 | 8.7 | 0.00 | 0.00 | 0.00 | 59 | 1020.5 |
| 20260502003502 | 66 | 348 | 2.6 | 13.0 | 0.00 | 0.00 | 0.00 | 58 | 1020.6 |
| 20260502003009 | 66 | 52 | 3.5 | 13.0 | 0.00 | 0.00 | 0.00 | 57 | 1020.6 |
| 20260502002503 | 66 | 8 | 6.1 | 12.2 | 0.00 | 0.00 | 0.00 | 56 | 1020.6 |
| 20260502002003 | 66 | 76 | 4.3 | 12.2 | 0.00 | 0.00 | 0.00 | 58 | 1020.5 |
| 20260502001504 | 66 | 22 | 1.7 | 4.3 | 0.00 | 0.00 | 0.00 | 58 | 1020.6 |
| 20260502001004 | 66 | 32 | 0.9 | 7.0 | 0.00 | 0.00 | 0.00 | 58 | 1020.6 |
| 20260502000503 | 66 | 59 | 0.9 | 7.0 | 0.00 | 0.00 | 0.00 | 58 | 1020.6 |
| 20260502000006 | 66 | 93 | 1.7 | 5.2 | 0.00 | 0.00 | 0.00 | 58 | 1020.7 |
| 20260501235504 | 66 | 33 | 1.7 | 8.7 | 0.00 | 0.00 | 0.00 | 58 | 1020.6 |
| 20260501235004 | 65 | 333 | 2.6 | 8.7 | 0.00 | 0.00 | 0.00 | 58 | 1020.6 |
| 20260501234505 | 65 | 33 | 0.0 | 7.0 | 0.00 | 0.00 | 0.00 | 59 | 1020.6 |
| 20260501234003 | 65 | 30 | 0.9 | 6.1 | 0.00 | 0.00 | 0.00 | 58 | 1020.7 |
| 20260501233503 | 65 | 345 | 1.7 | 5.2 | 0.00 | 0.00 | 0.00 | 57 | 1020.7 |
| 20260501233005 | 64 | 20 | 0.0 | 7.8 | 0.00 | 0.00 | 0.00 | 58 | 1020.6 |
| 20260501232508 | 64 | 47 | 1.7 | 8.7 | 0.00 | 0.00 | 0.00 | 59 | 1020.8 |
| 20260501232002 | 64 | 148 | 2.6 | 8.7 | 0.00 | 0.00 | 0.00 | 58 | 1020.8 |
| 20260501231503 | 64 | 77 | 1.7 | 7.8 | 0.00 | 0.00 | 0.00 | 58 | 1020.8 |
| 20260501230502 | 64 | 18 | 2.6 | 9.6 | 0.00 | 0.00 | 0.00 | 58 | 1020.8 |
| 20260501230005 | 64 | 77 | 0.9 | 9.6 | 0.00 | 0.00 | 0.00 | 59 | 1020.8 |
| 20260501225504 | 64 | 40 | 4.3 | 9.6 | 0.00 | 0.00 | 0.00 | 58 | 1020.9 |
| 20260501225006 | 64 | 31 | 1.7 | 12.2 | 0.00 | 0.00 | 0.00 | 58 | 1021.0 |
| 20260501224504 | 64 | 39 | 4.3 | 11.3 | 0.00 | 0.00 | 0.00 | 59 | 1020.9 |
| 20260501224004 | 64 | 4 | 2.6 | 9.6 | 0.00 | 0.00 | 0.00 | 58 | 1020.8 |
| 20260501223504 | 64 | 21 | 2.6 | 9.6 | 0.00 | 0.00 | 0.00 | 59 | 1020.9 |
| 20260501223008 | 63 | 24 | 0.9 | 9.6 | 0.00 | 0.00 | 0.00 | 60 | 1020.8 |
| 20260501222503 | 63 | 52 | 4.3 | 10.4 | 0.00 | 0.00 | 0.00 | 59 | 1020.8 |
| 20260501222008 | 63 | 27 | 2.6 | 10.4 | 0.00 | 0.00 | 0.00 | 60 | 1020.8 |
| 20260501221513 | 63 | 22 | 3.5 | 9.6 | 0.00 | 0.00 | 0.00 | 59 | 1020.8 |
| 20260501221005 | 63 | 46 | 1.7 | 7.8 | 0.00 | 0.00 | 0.00 | 60 | 1020.7 |
| 20260501220508 | 63 | 27 | 1.7 | 5.2 | 0.00 | 0.00 | 0.00 | 60 | 1020.6 |
| 20260501220021 | 63 | 344 | 0.9 | 7.8 | 0.00 | 0.00 | 0.00 | 60 | 1020.6 |
| 20260501215512 | 63 | 10 | 3.5 | 8.7 | 0.00 | 0.00 | 0.00 | 59 | 1020.6 |
| 20260501215004 | 63 | 25 | 2.6 | 8.7 | 0.00 | 0.00 | 0.00 | 58 | 1020.6 |
| 20260501214502 | 63 | 44 | 1.7 | 7.8 | 0.00 | 0.00 | 0.00 | 58 | 1020.5 |
| 20260501214007 | 63 | 64 | 3.5 | 7.8 | 0.00 | 0.00 | 0.00 | 58 | 1020.5 |
| 20260501213506 | 63 | 17 | 2.6 | 7.8 | 0.00 | 0.00 | 0.00 | 57 | 1020.5 |
| 20260501213004 | 64 | 38 | 1.7 | 7.8 | 0.00 | 0.00 | 0.00 | 57 | 1020.5 |
| 20260501212506 | 64 | 49 | 2.6 | 8.7 | 0.00 | 0.00 | 0.00 | 57 | 1020.4 |
| 20260501212005 | 64 | 109 | 3.5 | 13.0 | 0.00 | 0.00 | 0.00 | 56 | 1020.4 |
| 20260501211517 | 64 | 72 | 4.3 | 12.2 | 0.00 | 0.00 | 0.00 | 56 | 1020.3 |
| 20260501211009 | 64 | 360 | 4.3 | 12.2 | 0.00 | 0.00 | 0.00 | 56 | 1020.2 |
| 20260501210505 | 64 | 47 | 3.5 | 13.9 | 0.00 | 0.00 | 0.00 | 55 | 1020.2 |
| 20260501210014 | 64 | 54 | 3.5 | 13.9 | 0.00 | 0.00 | 0.00 | 55 | 1020.2 |
| 20260501205507 | 64 | 30 | 3.5 | 10.4 | 0.00 | 0.00 | 0.00 | 56 | 1020.1 |
| 20260501205008 | 64 | 61 | 1.7 | 8.7 | 0.00 | 0.00 | 0.00 | 56 | 1020.2 |
| 20260501204516 | 63 | 66 | 0.0 | 9.6 | 0.00 | 0.00 | 0.00 | 57 | 1020.2 |
| 20260501204006 | 63 | 42 | 4.3 | 9.6 | 0.00 | 0.00 | 0.00 | 56 | 1020.1 |